Time,TemperatureF,DewpointF,PressureIn,WindDirection,WindDirectionDegrees,WindSpeedMPH,WindSpeedGustMPH,Humidity,HourlyPrecipIn,Conditions,Clouds,dailyrainin,SoftwareType,DateUTC
2013-09-18 00:13:00,69.0,67.0,29.81,SSE,164,6.0,14.0,92,0.00,,,0.02,,2013-09-18 05:13:00,
2013-09-18 00:23:00,69.0,67.0,29.81,SSW,196,5.0,12.0,93,0.00,,,0.02,,2013-09-18 05:23:00,
2013-09-18 00:43:00,69.0,67.0,29.80,SSE,167,5.0,13.0,93,0.00,,,0.02,,2013-09-18 05:43:00,
2013-09-18 00:52:00,69.0,67.0,29.81,South,179,5.0,10.0,93,0.00,,,0.01,,2013-09-18 05:52:00,
2013-09-18 01:12:00,69.0,67.0,29.80,SSE,164,5.0,10.0,93,0.00,,,0.01,,2013-09-18 06:12:00,
2013-09-18 01:22:00,69.0,67.0,29.80,SSW,200,5.0,10.0,94,0.00,,,0.01,,2013-09-18 06:22:00,
2013-09-18 01:42:00,69.0,67.0,29.80,SW,236,5.0,10.0,93,0.00,,,0.01,,2013-09-18 06:42:00,
2013-09-18 01:52:00,68.0,66.0,29.80,SSW,208,5.0,12.0,94,0.00,,,0.01,,2013-09-18 06:52:00,
2013-09-18 02:12:00,68.0,66.0,29.80,West,260,5.0,12.0,93,0.00,,,0.01,,2013-09-18 07:12:00,
2013-09-18 02:22:00,68.0,66.0,29.80,SSW,202,4.0,12.0,93,0.00,,,0.01,,2013-09-18 07:22:00,
2013-09-18 02:42:00,68.0,66.0,29.79,South,189,4.0,10.0,93,0.00,,,0.01,,2013-09-18 07:42:00,
2013-09-18 02:52:00,68.0,66.0,29.80,SSW,209,5.0,13.0,93,0.00,,,0.01,,2013-09-18 07:52:00,
2013-09-18 03:12:00,68.0,66.0,29.79,SSW,208,5.0,11.0,93,0.00,,,0.01,,2013-09-18 08:12:00,
2013-09-18 03:23:00,68.0,66.0,29.78,South,180,5.0,12.0,93,0.00,,,0.01,,2013-09-18 08:23:00,
2013-09-18 03:52:00,68.0,66.0,29.78,SSW,212,5.0,10.0,94,0.00,,,0.01,,2013-09-18 08:52:00,
2013-09-18 04:12:00,68.0,66.0,29.77,South,177,5.0,9.0,94,0.00,,,0.01,,2013-09-18 09:12:00,
2013-09-18 04:22:00,68.0,66.0,29.76,SSW,209,4.0,7.0,94,0.00,,,0.01,,2013-09-18 09:22:00,
2013-09-18 04:43:00,68.0,66.0,29.76,SSW,194,4.0,7.0,94,0.00,,,0.01,,2013-09-18 09:43:00,
2013-09-18 04:53:00,68.0,66.0,29.76,SSW,200,3.0,9.0,94,0.00,,,0.01,,2013-09-18 09:53:00,
2013-09-18 05:13:00,68.0,66.0,29.75,South,191,4.0,8.0,94,0.00,,,0.01,,2013-09-18 10:13:00,
2013-09-18 05:23:00,68.0,66.0,29.74,South,180,5.0,8.0,94,0.00,,,0.01,,2013-09-18 10:23:00,
2013-09-18 05:53:00,68.0,66.0,29.74,SSW,201,5.0,9.0,93,0.00,,,0.01,,2013-09-18 10:53:00,
2013-09-18 06:12:00,69.0,67.0,29.74,South,188,4.0,10.0,92,0.00,,,0.01,,2013-09-18 11:12:00,
2013-09-18 06:22:00,68.0,66.0,29.74,SSE,165,4.0,9.0,93,0.00,,,0.01,,2013-09-18 11:22:00,
2013-09-18 06:42:00,69.0,67.0,29.74,WNW,284,4.0,9.0,93,0.00,,,0.01,,2013-09-18 11:42:00,
2013-09-18 06:52:00,69.0,67.0,29.74,South,185,5.0,8.0,93,0.00,,,0.01,,2013-09-18 11:52:00,
2013-09-18 07:12:00,69.0,67.0,29.74,West,278,5.0,11.0,93,0.00,,,0.01,,2013-09-18 12:12:00,
2013-09-18 07:22:00,69.0,67.0,29.74,South,175,5.0,13.0,92,0.00,,,0.01,,2013-09-18 12:22:00,
2013-09-18 07:42:00,69.0,67.0,29.74,South,169,5.0,10.0,92,0.00,,,0.01,,2013-09-18 12:42:00,
2013-09-18 07:52:00,69.0,67.0,29.74,ESE,116,5.0,10.0,92,0.00,,,0.01,,2013-09-18 12:52:00,
2013-09-18 08:11:00,69.0,66.0,29.75,West,269,4.0,10.0,91,0.00,,,0.01,,2013-09-18 13:11:00,
2013-09-18 23:01:00,78.0,66.0,29.64,SW,225,7.0,12.0,67,0.00,,,0.00,,2013-09-19 04:01:00,
2013-09-18 23:14:00,78.0,67.0,29.64,SSW,210,6.0,12.0,68,0.00,,,0.00,,2013-09-19 04:14:00,
2013-09-18 23:25:00,78.0,67.0,29.65,SSW,205,6.0,12.0,69,0.00,,,0.00,,2013-09-19 04:25:00,
2013-09-18 23:44:00,77.0,66.0,29.65,South,183,6.0,14.0,70,0.00,,,0.00,,2013-09-19 04:44:00,
2013-09-18 23:54:00,77.0,66.0,29.65,SSW,207,6.0,12.0,70,0.00,,,0.00,,2013-09-19 04:54:00,